Temp
58 59 59 60 60 61 62 62 62 61 61 61 61 61 62 62 62 61 60 60 60 60 60 60 60 60 71 77 80 87 73 75 88 88 85 83 80 80 76 81 81 78 81 82 83 82 83
57 57 57 58 58 59 60 60 60 59 59 59 59 60 60 61 61 61 60 60 59 59 59 60 60 58 75 68 89 89 87 87 88 87 85 85 81 83 78 78 77 80 80 81 83 82 82
58 57 56 56 56 57 57 57 58 59 59 59 59 58 59 59 60 60 60 60 59 59 59 60 60 70 70 72 90 91 88 86 87 86 82 85 85 80 81 76 82 79 73 78 80 82 80
60 60 59 58 56 56 56 57 57 58 58 58 59 58 58 58 58 58 58 58 58 59 59 60 60 69 67 88 90 86 89 86 87 88 85 85 85 80 78 81 77 73 74 68 80 80 81
59 60 60 59 59 58 58 58 58 58 59 58 58 57 57 57 56 56 56 56 58 58 59 60 67 70 68 76 80 86 86 81 83 84 84 83 81 76 77 69 68 72 65 69 72 81 79
59 60 60 59 59 58 58 58 58 58 58 59 59 58 58 57 56 55 55 56 60 60 65 74 74 63 73 73 82 83 87 83 79 78 75 74 74 69 71 68 58 65 67 70 71 75 76
59 59 59 59 58 59 59 59 58 58 58 58 59 58 58 58 57 56 60 62 59 61 68 68 70 71 75 81 83 81 84 80 79 75 67 72 65 62 69 71 72 71 68 68 75 77 72
57 57 58 58 58 58 58 59 58 57 57 58 58 58 58 58 57 56 63 61 64 64 58 72 73 73 78 81 69 78 83 72 72 65 72 68 61 71 74 73 69 69 65 66 74 75 68
56 56 56 57 57 57 58 58 57 57 57 57 57 58 58 58 56 59 63 65 74 72 58 65 72 72 74 78 69 72 80 74 69 66 68 64 68 70 69 67 63 66 64 66 67 72 71
56 55 55 56 56 56 56 56 56 56 56 56 57 57 56 55 55 71 65 74 73 70 53 60 68 72 75 76 68 80 81 76 70 64 68 67 73 69 65 64 67 60 71 68 67 65 58
56 55 55 55 55 55 55 55 55 55 56 56 56 56 55 54 65 65 68 74 73 67 35 65 69 78 74 67 70 72 81 76 66 67 67 65 65 65 63 65 69 63 68 66 66 63 63
55 55 55 55 54 54 54 54 54 55 55 55 55 56 54 59 64 67 71 70 64 47 35 58 66 63 62 65 67 72 69 77 77 67 70 67 75 70 69 70 70 69 64 64 64 62 51
55 55 55 54 54 54 54 54 54 54 54 55 55 55 55 63 59 69 65 58 41 35 60 57 59 63 62 62 62 65 63 62 60 53 55 63 64 69 69 63 68 65 59 50 47 49 48
54 54 54 54 54 54 54 54 54 54 54 54 54 54 57 62 64 63 58 44 30 47 52 66 61 61 56 63 63 63 60 59 63 64 61 55 52 64 68 63 61 61 60 51 43 47 53
54 53 53 53 53 53 53 53 53 53 53 54 54 58 56 62 62 58 46 33 38 48 57 57 59 53 56 59 62 61 59 59 65 64 55 54 58 69 69 67 67 61 54 64 52 55 48
54 53 53 53 53 53 53 53 52 53 53 53 53 54 56 63 60 53 39 34 44 55 58 58 46 54 50 53 53 55 58 64 62 68 67 58 49 61 65 65 67 63 67 50 52 38 39
53 53 53 53 53 52 52 52 52 52 53 53 50 42 58 63 57 44 33 36 48 56 58 52 50 48 50 49 53 50 49 60 64 63 65 60 52 50 57 55 56 56 53 56 57 52 43
52 52 52 52 52 52 52 52 52 52 52 51 47 34 57 56 38 38 34 45 50 53 58 54 53 51 50 51 50 47 45 55 60 60 55 60 52 45 49 61 62 57 57 54 42 43 49
51 52 51 52 52 51 51 51 52 52 51 52 40 38 55 49 32 33 44 46 50 51 51 51 49 51 54 51 44 45 49 55 59 53 53 54 42 35 45 54 56 51 56 56 53 49 41
51 51 51 51 51 51 51 51 51 51 51 49 38 33 39 41 39 34 38 43 44 53 51 53 50 49 47 46 51 47 51 57 56 54 47 49 43 39 40 50 53 44 52 55 52 42 45
51 51 51 51 51 51 51 51 51 51 51 50 38 35 48 33 35 40 42 41 40 43 52 53 46 43 43 41 45 44 49 53 51 46 48 47 35 44 49 54 54 54 51 52 50 51 43
51 51 51 50 51 51 51 51 51 51 50 44 34 36 44 45 47 45 40 38 38 42 43 46 44 48 47 41 42 39 47 48 47 46 45 43 35 36 34 45 47 45 51 54 52 53 53
51 51 51 50 50 50 50 50 50 50 50 45 47 49 40 40 43 41 42 43 42 39 43 48 49 47 47 50 54 51 48 49 46 41 38 37 36 33 31 43 43 33 41 48 51 54 53
50 50 51 50 50 50 50 50 50 49 50 50 49 47 35 32 40 42 45 48 46 47 40 46 51 47 54 59 57 53 49 48 43 42 47 37 38 36 32 38 26 47 59 58 52 54 56
49 49 50 50 50 50 49 49 49 49 49 48 47 42 38 32 42 42 44 43 48 49 47 47 51 56 58 51 42 37 38 40 41 46 43 43 39 34 30 32 39 44 52 52 50 50 59
49 49 49 50 49 49 49 49 49 48 48 46 43 46 39 32 35 44 38 45 38 42 43 47 55 55 52 43 37 30 30 38 37 43 53 47 42 37 36 29 26 46 57 60 56 41 59
48 48 49 49 49 49 49 48 48 48 48 46 40 43 38 32 42 40 33 37 45 45 40 46 47 45 50 35 31 32 34 44 35 35 33 35 32 29 34 31 39 54 59 60 38 44 60
48 48 48 49 49 48 49 49 48 48 48 44 40 43 37 36 41 42 42 38 43 44 39 47 43 44 39 32 32 35 33 39 38 45 40 34 32 33 34 29 28 58 58 45 52 57 57
47 47 48 48 47 47 48 49 48 48 48 47 38 44 44 35 42 46 47 51 52 52 44 44 40 43 40 36 39 39 34 39 41 35 51 37 39 38 41 41 55 59 57 60 56 54 54
MSLP
1019.82 1019.66 1019.72 1019.47 1019.30 1019.05 1019.23 1019.10 1019.34 1019.59 1019.53 1019.64 1019.86 1020.00 1019.64 1019.83 1019.96 1019.90 1019.52 1019.33 1019.10 1018.90 1018.52 1018.24 1017.54 1016.77 1015.32 1012.90 1010.96 1011.22 1011.77 1011.72 1011.12 1010.54 1009.72 1009.08 1008.36 1007.47 1006.66 1005.81 1005.83 1005.55 1004.70 1005.13 1005.19 1005.70 1005.53
1019.86 1019.93 1019.87 1019.74 1019.67 1019.34 1019.55 1019.45 1019.48 1019.37 1019.37 1019.41 1019.83 1019.86 1019.56 1019.65 1019.78 1019.66 1019.42 1019.26 1019.13 1018.89 1018.66 1018.36 1017.97 1017.30 1015.15 1012.62 1010.89 1011.01 1011.26 1010.98 1010.39 1010.04 1009.41 1009.11 1008.38 1008.10 1007.61 1006.87 1006.31 1005.84 1005.51 1005.36 1005.28 1005.53 1005.86
1019.68 1019.76 1019.91 1019.80 1019.94 1019.90 1019.75 1019.77 1019.77 1019.48 1019.50 1019.46 1019.71 1019.68 1019.57 1019.57 1019.60 1019.46 1019.41 1019.25 1019.02 1018.82 1018.59 1018.48 1018.11 1017.20 1014.94 1012.00 1010.83 1010.85 1010.97 1010.74 1010.61 1010.24 1009.54 1009.36 1009.22 1008.66 1007.66 1007.10 1006.61 1006.59 1006.05 1005.46 1005.25 1005.17 1005.37
1019.63 1019.77 1019.78 1019.61 1019.80 1020.03 1020.14 1019.82 1019.52 1019.51 1019.56 1019.67 1019.73 1019.61 1019.74 1019.42 1019.39 1019.40 1019.23 1019.02 1018.98 1018.76 1018.53 1018.47 1018.16 1017.08 1013.60 1010.96 1011.18 1010.99 1010.42 1010.21 1010.41 1010.42 1010.16 1009.82 1009.62 1009.05 1008.38 1007.52 1007.29 1006.52 1005.80 1004.55 1003.67 1004.65 1005.11
1019.85 1019.78 1019.63 1019.79 1019.68 1019.83 1019.92 1019.85 1019.79 1019.78 1019.79 1019.39 1019.57 1019.66 1019.81 1019.52 1019.38 1019.29 1019.18 1018.85 1018.85 1018.60 1018.13 1017.94 1017.47 1016.01 1012.22 1011.53 1010.99 1010.36 1010.37 1010.03 1010.12 1010.27 1010.22 1010.16 1009.67 1008.95 1008.26 1007.92 1006.62 1005.51 1004.41 1003.43 1003.12 1003.99 1004.51
1019.99 1019.78 1019.75 1019.79 1019.83 1019.80 1019.85 1019.73 1019.74 1019.77 1019.55 1019.40 1019.48 1019.29 1019.67 1019.70 1019.23 1019.17 1019.08 1018.87 1018.37 1018.30 1017.22 1016.66 1016.05 1015.60 1012.18 1010.65 1010.13 1010.27 1010.34 1010.36 1010.03 1010.10 1010.11 1010.02 1009.30 1008.45 1007.82 1006.98 1005.19 1004.12 1003.67 1003.29 1002.51 1003.67 1004.32
1019.66 1019.73 1019.70 1019.84 1019.85 1019.93 1019.75 1019.67 1019.80 1019.49 1019.60 1019.51 1019.29 1019.24 1019.38 1019.18 1019.15 1019.11 1019.13 1018.87 1018.29 1017.12 1015.93 1013.84 1013.01 1012.15 1010.92 1010.59 1010.82 1009.99 1009.93 1010.07 1009.82 1009.71 1009.12 1008.86 1008.62 1007.22 1006.44 1006.03 1005.52 1004.74 1004.19 1003.10 1002.42 1003.06 1004.22
1019.56 1019.60 1019.84 1019.83 1019.80 1019.81 1019.81 1019.68 1019.75 1019.63 1019.58 1019.34 1019.18 1019.16 1019.19 1019.20 1019.23 1019.06 1018.56 1017.80 1016.92 1016.87 1014.95 1013.16 1012.15 1011.45 1010.95 1010.64 1010.38 1009.27 1009.80 1009.88 1009.28 1008.78 1008.16 1008.29 1007.49 1006.85 1006.24 1005.83 1005.67 1005.16 1004.79 1003.89 1003.26 1003.37 1004.86
1019.55 1019.57 1019.86 1019.94 1019.95 1019.79 1019.82 1019.92 1019.70 1019.59 1019.38 1019.08 1018.93 1018.99 1019.16 1019.15 1018.92 1018.85 1017.93 1017.06 1016.46 1016.45 1014.81 1011.95 1011.00 1009.94 1009.60 1010.00 1009.12 1008.72 1008.83 1009.03 1008.74 1008.14 1007.73 1007.07 1006.24 1006.85 1006.47 1006.13 1006.20 1005.38 1004.67 1004.09 1003.62 1003.48 1004.79
1019.49 1019.50 1019.59 1019.71 1019.73 1019.79 1019.71 1019.89 1020.03 1019.53 1019.33 1019.29 1019.05 1018.85 1019.03 1019.04 1019.39 1017.12 1016.97 1016.50 1016.66 1016.59 1013.68 1009.94 1008.43 1007.95 1008.49 1008.74 1007.75 1007.78 1008.37 1008.06 1008.09 1007.52 1007.13 1006.35 1006.00 1006.24 1006.62 1006.20 1005.97 1005.21 1004.86 1004.80 1004.33 1004.23 1003.48
1019.41 1019.50 1019.44 1019.65 1019.65 1019.65 1019.58 1019.65 1019.63 1019.68 1019.52 1019.40 1019.18 1019.02 1018.85 1018.95 1017.82 1017.05 1016.75 1016.22 1016.58 1016.34 1012.43 1007.96 1006.87 1008.03 1007.79 1007.97 1007.15 1006.70 1007.04 1006.91 1006.73 1006.65 1007.16 1005.48 1005.81 1005.71 1005.61 1005.62 1005.86 1005.60 1005.74 1005.48 1005.05 1004.35 1003.70
1019.13 1019.38 1019.41 1019.46 1019.53 1019.51 1019.53 1019.54 1019.48 1019.41 1019.32 1019.31 1019.21 1019.23 1019.12 1018.77 1017.93 1017.13 1017.11 1017.04 1017.19 1015.84 1010.33 1008.00 1007.78 1007.90 1008.17 1007.93 1007.44 1006.84 1007.04 1006.58 1006.28 1006.88 1006.22 1005.83 1005.45 1005.79 1005.37 1005.62 1005.69 1006.18 1006.47 1006.05 1005.54 1004.86 1003.26
1018.91 1019.07 1019.18 1019.25 1019.38 1019.49 1019.49 1019.43 1019.45 1019.22 1019.23 1019.11 1019.01 1019.03 1019.38 1018.20 1017.40 1017.12 1017.70 1017.53 1017.30 1013.90 1009.74 1007.79 1007.33 1007.67 1007.73 1007.11 1007.31 1007.06 1006.82 1006.38 1005.79 1006.09 1005.63 1005.39 1005.22 1005.73 1006.23 1005.87 1005.88 1006.31 1006.34 1005.43 1004.96 1003.98 1002.37
1018.55 1018.85 1018.99 1019.06 1019.21 1019.28 1019.39 1019.27 1019.30 1019.21 1019.09 1019.03 1018.96 1018.98 1018.54 1018.31 1017.91 1017.85 1018.29 1018.09 1015.89 1011.82 1010.45 1007.68 1008.07 1007.77 1007.46 1006.93 1006.51 1006.68 1006.46 1005.91 1006.00 1004.91 1004.29 1004.21 1004.09 1004.55 1005.04 1005.28 1005.07 1005.43 1005.53 1004.24 1003.43 1002.91 1001.77
1018.26 1018.37 1018.62 1018.77 1018.86 1019.09 1019.09 1019.16 1019.17 1019.14 1019.06 1019.01 1018.99 1018.58 1018.17 1017.73 1017.96 1018.46 1018.38 1017.40 1014.50 1011.56 1010.70 1009.53 1008.91 1008.13 1007.33 1007.12 1006.53 1006.17 1006.11 1005.41 1004.80 1005.47 1004.67 1003.97 1002.82 1003.22 1004.09 1005.20 1005.23 1004.73 1004.90 1004.75 1004.53 1004.04 1003.61
1017.80 1017.99 1018.18 1018.45 1018.58 1018.76 1018.88 1018.98 1019.04 1019.12 1019.09 1018.98 1018.68 1018.17 1017.34 1017.47 1017.89 1018.38 1018.29 1016.17 1014.24 1012.23 1011.35 1009.80 1009.78 1008.74 1007.60 1007.81 1007.61 1007.12 1005.76 1005.03 1005.09 1004.60 1005.26 1005.17 1004.67 1004.43 1004.64 1005.53 1005.09 1004.76 1005.12 1005.41 1005.23 1004.64 1003.42
1017.40 1017.60 1017.78 1018.06 1018.26 1018.53 1018.69 1018.79 1018.89 1019.05 1018.99 1018.96 1018.71 1018.34 1016.81 1017.06 1018.07 1018.18 1016.81 1015.13 1013.75 1012.60 1011.98 1011.30 1010.38 1010.19 1009.44 1009.29 1008.32 1008.32 1007.58 1006.18 1005.63 1005.40 1005.74 1006.11 1006.50 1006.32 1006.13 1005.54 1004.94 1005.39 1005.53 1005.47 1005.25 1004.78 1003.74
1017.00 1017.30 1017.43 1017.74 1018.11 1018.32 1018.43 1018.71 1018.76 1018.84 1018.95 1018.83 1018.35 1018.15 1017.35 1017.63 1018.04 1017.10 1016.07 1014.59 1014.00 1012.31 1011.97 1011.69 1011.34 1010.86 1009.96 1009.83 1009.12 1009.07 1008.87 1007.61 1007.78 1007.99 1006.84 1006.66 1007.14 1006.87 1006.22 1005.78 1005.58 1005.52 1004.93 1005.66 1005.78 1005.22 1004.71
1016.62 1016.80 1017.04 1017.45 1017.67 1017.95 1018.22 1018.35 1018.52 1018.73 1018.85 1018.22 1018.26 1018.22 1017.75 1018.18 1017.23 1016.61 1015.71 1014.51 1013.62 1012.55 1012.02 1011.77 1011.53 1011.41 1011.13 1010.08 1009.96 1010.02 1009.27 1008.82 1009.09 1009.68 1008.86 1008.92 1009.47 1008.80 1006.78 1006.44 1006.50 1006.15 1005.53 1005.60 1005.81 1006.44 1005.83
1016.22 1016.47 1016.74 1017.07 1017.27 1017.57 1017.74 1018.05 1018.34 1018.57 1018.79 1019.00 1018.82 1018.31 1017.88 1017.96 1017.45 1016.70 1015.27 1013.70 1012.86 1012.37 1012.04 1011.83 1011.58 1012.06 1011.21 1010.56 1010.21 1009.44 1008.87 1008.94 1009.58 1010.06 1010.56 1011.45 1011.16 1010.21 1007.70 1005.52 1005.21 1006.26 1005.72 1005.60 1005.71 1005.60 1003.99
1015.82 1016.09 1016.36 1016.64 1016.89 1017.08 1017.30 1017.62 1017.93 1018.18 1018.51 1018.90 1018.52 1017.35 1015.67 1016.48 1016.36 1015.62 1015.12 1014.38 1013.23 1012.02 1011.43 1011.75 1011.78 1012.04 1011.52 1010.51 1010.01 1009.75 1009.86 1009.67 1010.63 1011.44 1012.03 1011.98 1011.60 1010.87 1008.86 1007.09 1006.19 1004.98 1005.24 1005.27 1005.09 1004.77 1004.76
1015.29 1015.64 1015.92 1016.11 1016.30 1016.52 1016.84 1017.09 1017.39 1017.71 1018.18 1018.45 1017.65 1017.07 1016.38 1015.48 1014.77 1014.16 1014.25 1013.55 1013.21 1012.57 1012.14 1010.41 1010.47 1010.85 1010.88 1010.35 1010.22 1010.01 1009.94 1009.92 1009.97 1011.22 1011.60 1012.49 1012.18 1011.81 1010.32 1008.74 1007.34 1006.09 1005.30 1004.14 1004.31 1004.42 1004.03
1014.72 1015.00 1015.27 1015.52 1015.77 1016.01 1016.27 1016.58 1016.89 1017.26 1017.71 1017.09 1016.85 1016.59 1016.87 1015.37 1014.35 1013.93 1012.81 1012.29 1012.10 1012.77 1011.88 1010.54 1009.85 1009.93 1009.43 1009.43 1009.89 1010.61 1010.94 1010.66 1010.78 1011.39 1011.63 1012.12 1012.14 1011.74 1010.07 1008.67 1007.29 1006.31 1005.26 1004.58 1003.75 1003.81 1003.51
1014.15 1014.45 1014.71 1014.97 1015.20 1015.41 1015.67 1015.93 1016.24 1016.62 1016.91 1016.58 1016.41 1016.47 1016.67 1015.32 1014.40 1013.08 1012.24 1011.73 1011.18 1010.72 1011.14 1010.58 1009.50 1009.30 1009.23 1009.81 1009.90 1010.19 1010.71 1010.05 1010.81 1011.14 1010.06 1011.14 1011.31 1011.32 1009.82 1009.06 1006.92 1004.59 1003.33 1002.88 1002.64 1002.52 1002.55
1013.45 1013.78 1014.09 1014.35 1014.60 1014.73 1014.89 1015.08 1015.44 1015.91 1016.27 1016.44 1016.58 1016.78 1016.29 1015.31 1014.10 1013.23 1012.46 1012.02 1010.86 1010.36 1009.93 1009.84 1009.53 1009.53 1010.05 1010.45 1010.44 1010.42 1010.17 1009.41 1009.40 1010.01 1010.41 1010.89 1010.81 1010.66 1009.93 1008.38 1006.37 1004.69 1002.89 1002.34 1002.30 1001.75 1001.34
1012.73 1013.07 1013.42 1013.73 1014.01 1014.17 1014.32 1014.49 1014.84 1015.32 1015.71 1016.36 1016.58 1016.77 1016.85 1016.29 1013.84 1013.23 1013.24 1011.69 1011.05 1010.50 1010.34 1009.36 1009.34 1010.02 1010.05 1010.85 1010.92 1010.03 1008.91 1008.56 1007.95 1007.33 1007.63 1008.82 1009.95 1010.07 1009.01 1007.56 1005.85 1003.39 1002.17 1002.24 1002.58 1001.66 1000.70
1012.05 1012.45 1012.81 1013.12 1013.40 1013.66 1013.87 1014.12 1014.47 1014.85 1015.28 1015.86 1016.20 1016.69 1016.79 1015.63 1013.41 1013.63 1013.33 1011.35 1010.55 1010.12 1010.06 1009.45 1009.29 1009.99 1010.27 1010.91 1010.77 1009.58 1008.32 1008.00 1007.04 1006.49 1007.89 1008.46 1009.15 1008.65 1007.83 1006.44 1004.79 1003.34 1002.38 1002.49 1002.53 1000.97 1000.53
1011.42 1011.83 1012.24 1012.60 1012.91 1013.24 1013.48 1013.79 1014.12 1014.47 1014.88 1015.49 1015.72 1016.07 1016.18 1014.60 1013.15 1012.90 1012.38 1012.36 1010.43 1009.87 1009.61 1009.08 1009.81 1009.19 1010.27 1010.74 1010.35 1009.96 1008.39 1007.25 1006.80 1005.63 1005.61 1006.75 1007.37 1007.19 1006.98 1005.53 1004.09 1002.66 1001.92 1001.85 1002.05 1001.74 1001.73
1010.89 1011.35 1011.78 1012.16 1012.57 1012.93 1013.21 1013.53 1013.78 1014.11 1014.53 1015.04 1015.21 1014.93 1015.41 1015.03 1013.17 1012.80 1012.27 1011.75 1010.36 1009.79 1009.88 1009.66 1009.37 1009.10 1009.95 1010.32 1009.82 1009.34 1008.70 1007.42 1005.81 1004.65 1004.35 1004.40 1005.22 1005.26 1004.90 1003.60 1002.90 1002.13 1001.31 1001.59 1002.69 1002.76 1003.14
Wind_Speed
8 10 9 11 13 9 3 7 10 9 8 8 8 8 6 7 8 9 8 9 10 10 12 15 16 21 14 10 10 8 3 9 11 8 8 10 11 10 13 6 5 12 6 6 3 7 9
5 5 7 9 10 11 12 9 6 6 3 4 7 8 7 8 9 9 9 9 9 9 10 13 16 21 12 17 6 4 6 8 8 8 5 7 7 9 11 11 10 6 8 9 10 12 9
5 6 5 5 6 7 7 8 7 8 7 5 5 4 5 8 9 10 10 9 9 9 9 11 12 11 13 17 8 8 7 7 6 6 8 2 7 10 7 12 7 11 12 14 14 14 11
2 3 4 7 7 3 2 3 4 5 4 5 6 6 7 4 6 9 10 9 10 9 9 10 11 12 10 12 9 12 10 9 8 9 7 4 6 10 9 8 10 12 15 16 18 17 14
2 3 1 1 2 2 1 1 1 2 3 0 2 5 8 8 6 7 8 8 10 11 9 9 9 6 12 4 9 1 3 5 4 8 5 4 6 9 8 12 14 17 14 19 9 11 12
6 4 3 2 1 0 1 2 3 4 5 4 3 2 6 7 5 6 7 5 6 10 10 9 9 8 10 13 4 1 2 5 6 6 8 8 7 9 11 13 14 16 18 18 15 15 14
6 6 5 3 1 1 1 1 3 5 6 7 6 4 6 6 5 3 4 3 5 8 12 11 6 15 6 1 6 9 5 7 8 8 12 12 11 14 16 16 19 19 15 19 11 9 10
3 4 3 2 3 4 4 4 3 4 5 7 7 7 6 6 5 3 4 6 5 4 11 15 19 20 22 15 12 15 4 10 12 15 12 11 15 16 15 13 13 16 17 20 17 6 4
3 1 1 3 5 5 6 8 7 6 8 9 8 7 7 4 4 5 6 9 3 5 11 21 23 22 24 22 26 26 18 17 20 17 18 18 13 7 12 12 15 17 18 16 16 8 12
5 3 3 4 5 6 5 7 9 9 8 10 9 4 5 3 4 3 9 9 4 4 11 17 17 17 22 21 25 23 27 26 22 23 23 20 19 17 13 16 15 17 17 16 14 13 14
6 5 3 4 6 6 5 5 5 8 8 9 8 7 4 13 3 5 7 5 4 5 11 2 2 7 1 17 4 7 14 28 30 25 15 17 14 16 19 19 16 14 6 9 15 16 17
7 6 5 5 5 4 5 6 6 8 5 5 8 6 2 6 8 2 4 2 4 6 13 5 7 8 10 16 19 4 4 18 20 25 24 22 5 11 16 16 11 3 8 8 10 11 17
7 8 7 7 6 6 6 7 8 8 8 7 4 2 5 7 4 2 2 4 5 14 0 11 11 12 15 14 16 15 11 17 15 17 24 24 25 15 9 12 9 13 12 8 11 12 14
8 8 9 9 7 7 7 7 6 7 8 7 7 3 6 7 5 1 4 5 10 18 28 8 1 8 14 16 17 18 15 17 23 21 12 21 20 27 19 24 17 20 19 12 13 13 15
10 8 8 7 8 8 8 5 4 5 6 7 6 6 6 6 6 2 4 13 17 28 20 24 27 13 14 17 14 18 20 19 20 23 17 10 23 7 12 20 23 17 22 21 20 20 12
13 11 9 8 6 7 7 6 5 6 7 5 5 7 10 9 9 5 5 14 23 26 28 25 17 19 22 21 14 20 17 11 21 17 21 7 8 2 13 6 18 21 9 12 9 13 21
12 11 9 9 6 5 5 5 6 5 6 6 5 3 4 13 7 6 13 13 28 26 24 25 28 26 21 16 21 19 8 15 8 8 16 17 9 3 1 13 17 13 17 15 13 16 12
9 9 9 9 9 9 7 6 6 6 5 5 3 4 3 4 9 3 11 25 25 25 23 24 19 22 28 26 25 15 13 10 1 9 10 15 5 14 18 13 6 9 15 19 10 14 8
10 11 11 11 12 10 9 8 8 7 6 3 3 1 2 1 7 12 15 26 26 27 29 23 25 25 25 25 22 14 14 17 23 8 6 6 2 5 12 14 10 10 17 15 13 9 17
11 11 13 13 12 13 11 11 10 9 8 4 0 4 2 4 3 2 18 25 26 28 29 25 23 18 23 25 25 27 24 17 5 8 8 3 12 14 14 18 6 7 14 17 20 15 22
12 13 12 13 14 14 13 13 12 11 10 6 3 6 8 6 10 17 18 12 20 29 28 27 26 23 20 23 25 25 25 26 7 5 2 5 8 20 26 30 29 27 18 16 21 23 22
14 14 13 12 13 14 14 14 13 12 11 8 5 5 5 13 18 18 15 19 27 30 33 28 30 29 23 26 23 19 23 23 21 5 9 4 4 5 13 24 28 26 25 27 21 23 25
17 16 15 13 13 15 15 14 13 13 13 7 7 7 4 10 18 19 20 24 22 6 19 25 21 25 29 27 22 14 22 11 8 9 11 9 6 5 8 14 15 14 26 29 30 29 28
18 17 16 14 14 16 16 17 15 16 18 9 7 6 5 15 17 19 24 25 28 25 21 27 21 20 20 16 13 14 17 18 10 15 9 8 11 7 4 11 14 13 15 18 23 26 27
19 19 18 16 16 16 16 18 18 17 19 10 5 6 6 11 17 24 26 24 28 20 20 25 21 17 8 8 11 13 14 11 11 21 17 12 8 6 6 8 12 12 13 14 14 19 18
18 19 19 16 15 14 14 13 15 15 17 7 4 5 4 7 19 24 21 28 20 17 17 19 15 15 10 4 10 20 19 20 12 10 20 18 14 12 12 13 8 10 7 7 2 17 12
18 19 18 16 15 14 14 13 14 15 16 7 3 8 4 9 17 14 13 13 18 16 10 10 13 16 10 6 7 14 19 19 23 22 8 7 5 15 15 15 17 22 25 8 11 13 8
17 17 16 14 14 14 12 12 14 16 16 9 2 9 5 3 5 8 13 15 6 9 14 7 6 8 7 10 6 8 6 12 15 21 19 14 9 10 11 12 20 16 14 16 6 4 2
16 16 15 14 13 13 12 11 11 13 17 14 3 7 10 7 4 4 12 18 17 11 8 4 4 4 1 4 6 5 8 12 16 15 20 15 11 10 12 9 13 10 15 9 4 4 3
Wind_Direction
37 34 36 38 33 38 245 231 230 234 236 247 247 263 268 279 288 299 311 324 329 336 339 333 338 325 327 301 302 101 212 214 262 282 289 291 277 283 265 270 274 253 247 221 142 184 220
77 48 34 30 30 39 31 35 51 61 20 273 264 267 266 276 282 290 298 314 320 325 331 331 333 319 309 288 9 336 318 291 272 281 276 273 299 325 288 278 265 355 287 242 208 213 190
135 133 120 71 39 25 29 20 22 24 28 19 342 309 292 290 281 286 290 296 302 309 318 321 327 312 283 265 318 297 279 276 297 300 290 332 310 279 323 257 243 259 254 230 233 228 198
160 138 132 138 139 104 51 25 19 14 2 353 352 352 325 308 303 294 284 288 292 298 303 307 310 290 269 295 304 276 259 254 245 259 269 300 291 280 275 315 254 248 234 253 217 207 213
301 195 135 97 99 116 136 141 30 333 305 257 299 339 328 333 320 300 293 289 281 280 272 272 269 253 275 104 228 198 270 274 238 233 247 268 256 259 250 245 252 227 251 222 170 197 193
261 233 210 158 81 220 1 15 357 336 336 294 272 290 297 293 307 315 302 270 280 283 233 244 249 274 240 252 126 235 199 250 234 228 237 237 235 235 222 241 238 232 221 240 260 174 220
248 264 255 238 217 294 286 345 339 345 329 316 287 270 287 289 309 286 235 252 272 224 222 237 239 268 280 114 206 228 215 229 231 227 247 196 241 229 237 232 259 283 287 289 246 147 220
92 53 5 327 307 315 316 316 322 329 316 315 306 261 259 276 267 211 224 267 288 3 285 269 249 260 265 283 273 247 196 243 218 247 243 239 244 258 256 262 270 256 256 259 261 138 241
191 141 300 312 311 322 321 320 332 322 329 329 313 263 245 290 173 183 243 245 280 271 263 272 253 248 249 234 244 253 221 233 248 247 250 245 253 1 277 242 244 244 248 251 259 204 216
206 213 254 274 280 285 308 320 319 331 330 329 325 310 238 237 225 203 229 223 221 252 271 259 238 236 236 238 249 251 245 242 241 249 251 255 247 243 251 251 238 252 233 249 262 242 254
222 224 236 261 264 276 286 291 290 315 322 321 331 335 309 206 323 227 18 169 209 241 276 344 204 79 61 185 349 161 248 225 231 231 236 233 231 241 226 243 239 258 313 249 243 249 255
218 230 246 257 275 282 290 303 298 288 274 305 329 329 175 230 253 352 352 165 244 235 243 217 132 203 204 215 238 289 267 225 228 238 242 251 220 269 248 238 243 256 246 239 246 249 247
226 235 246 260 265 273 279 297 300 293 286 280 253 323 251 297 242 163 192 141 192 226 93 238 201 192 219 219 222 231 214 200 198 212 230 231 237 228 249 233 214 209 225 227 222 221 245
219 247 245 246 260 265 271 280 290 295 290 282 279 239 215 247 300 181 196 195 201 238 232 308 65 271 238 231 226 221 234 223 218 230 240 222 234 219 191 227 209 218 222 229 237 249 262
225 215 235 244 256 263 269 274 306 319 311 289 292 230 239 224 213 224 201 221 220 234 250 251 260 238 257 234 253 215 222 240 231 219 230 252 245 230 200 214 235 222 221 241 267 280 268
229 227 230 238 255 268 271 263 291 305 314 304 246 240 232 203 206 188 249 226 231 243 253 268 277 263 247 256 234 248 232 219 240 233 225 264 270 229 155 228 233 248 229 237 229 250 246
235 231 236 239 243 260 269 270 269 291 302 314 236 237 331 186 169 209 217 228 232 244 248 251 263 264 266 256 264 247 281 290 301 242 227 224 238 146 137 210 216 214 238 239 244 234 258
219 225 226 236 246 252 255 254 262 262 294 264 243 221 154 239 205 219 221 223 239 245 242 251 269 264 262 265 270 237 273 216 99 337 259 207 252 232 223 240 258 289 237 228 239 248 251
232 232 232 236 242 245 250 249 250 253 239 266 225 303 219 143 240 213 237 236 245 244 244 252 253 242 262 259 250 244 266 279 280 247 339 351 180 249 230 220 187 241 238 244 233 233 245
234 236 232 236 240 243 244 246 242 239 232 240 143 226 221 206 215 281 242 236 239 237 249 249 252 279 269 247 255 267 265 261 314 308 108 295 255 259 273 277 218 195 246 245 235 230 244
228 230 229 236 243 243 244 247 243 233 216 221 218 239 226 186 235 245 246 265 268 259 237 233 246 237 260 253 247 247 257 256 197 175 207 214 238 249 255 262 269 272 238 251 241 241 244
229 228 232 236 242 238 241 243 243 227 211 223 179 218 240 263 258 242 235 242 252 258 273 238 226 235 247 250 248 262 265 258 242 214 229 174 205 219 261 277 281 281 271 260 252 262 245
233 230 232 236 240 244 239 236 241 226 201 224 224 256 276 251 247 249 253 245 244 267 269 287 254 240 243 250 253 301 304 261 258 195 177 166 167 195 248 268 281 258 246 260 252 250 250
235 235 234 236 247 240 240 239 237 227 212 226 232 234 212 245 251 257 259 257 261 256 236 263 257 250 256 247 315 284 254 250 222 251 190 172 201 229 226 258 247 257 256 244 249 254 252
232 230 233 235 246 250 255 246 230 222 217 224 232 223 236 252 251 256 253 269 264 275 263 250 251 257 287 304 269 257 273 261 230 222 204 202 194 227 236 259 294 296 262 260 256 267 260
233 227 228 232 241 247 248 230 213 215 212 204 201 226 222 258 248 258 297 257 251 245 265 262 252 269 226 234 245 245 248 249 243 227 224 193 218 234 229 239 241 250 359 39 186 262 260
232 226 227 231 237 235 230 222 215 208 199 195 188 193 203 235 254 253 282 240 249 220 237 245 233 205 199 206 242 237 241 254 250 240 192 199 197 230 235 250 257 254 262 177 217 266 311
221 221 225 229 231 218 210 213 217 205 202 185 204 188 204 259 257 252 209 268 235 232 232 249 209 209 181 214 207 253 253 223 252 251 226 196 213 216 231 241 244 250 266 201 284 320 293
216 218 218 221 211 199 199 210 215 205 195 193 232 199 207 253 294 292 249 246 266 256 263 185 245 113 130 268 228 265 240 274 268 254 247 227 203 229 216 237 243 265 283 212 316 303 235